Regional Weather Roundup
Issued by NWS

Home | Current Version | Previous Version | Graphics & Text | Print | Product List | Glossary On
Versions: 1 2 3 4 5 6 7 8 9 10 11 12 13 14 15 16 17 18 19 20 21 22 23 24 25 26 27
000
ASUS45 KPSR 271010
RWRAZ

ARIZONA HOURLY REGIONAL WEATHER ROUNDUP
NATIONAL WEATHER SERVICE PHOENIX AZ
300 AM MST TUE SEP 27 2016

NOTE: FAIR INDICATES FEW OR NO CLOUDS BELOW 12,000 FEET WITH NO
SIGNIFICANT WEATHER AND/OR OBSTRUCTIONS TO VISIBILITY.

AZZ001>003-036-271100-
NORTHWEST ARIZONA

CITY           SKY/WX    TMP DP  RH WIND       PRES   REMARKS
BULLHEAD CITY  PTCLDY    77  45  31 E6        29.95S
KINGMAN        CLEAR     65  32  29 S12       30.09F
$$

AZZ004>008-015-016-018-271100-
NORTH CENTRAL ARIZONA

CITY           SKY/WX    TMP DP  RH WIND       PRES   REMARKS
GRAND CANYON   PTCLDY    45  36  70 NE5       30.31F
PRESCOTT       MOCLDY    62  45  53 S3        30.18F
FLAGSTAFF      MOCLDY    47  36  65 E5        30.30F
PAYSON         CLOUDY    59  46  63 E6        30.24F
PAGE           CLEAR     59  37  44 CALM      30.20S
$$

AZZ009>014-017-271100-
NORTHEAST ARIZONA

CITY           SKY/WX    TMP DP  RH WIND       PRES   REMARKS
WINSLOW        CLOUDY    54  26  34 CALM      30.22F
SAINT JOHNS    LGT RAIN  55  37  50 E7        30.25S
WINDOW ROCK    PTCLDY    39  27  62 CALM      30.34F
SHOW LOW       CLOUDY    50  46  87 E3        30.28F
$$

AZZ023-271100-
GREATER PHOENIX AREA

CITY           SKY/WX    TMP DP  RH WIND       PRES   REMARKS
PHOENIX        MOCLDY    74  48  39 E6        29.97F
BUCKEYE        CLOUDY    73  48  40 E9        29.97F
LUKE AFB       CLOUDY    74  50  42 NW6       29.97F
DEER VALLEY    MOCLDY    75  46  35 E7        29.99S
SCOTTSDALE     MOCLDY    76  47  35 E8        30.00F
MESA-GATEWAY   CLEAR     68  46  45 SE9       30.00F
$$

AZZ027-028-271100-
SOUTHWEST MARICOPA COUNTY AND PINAL COUNTY

CITY           SKY/WX    TMP DP  RH WIND       PRES   REMARKS
CASA GRANDE    MOCLDY    72  45  37 NE17      29.99F
GILA BEND      FAIR      73  46  37 E7        29.93F
$$

AZZ503-504-507>509-271100-
SOUTHEAST ARIZONA

CITY           SKY/WX    TMP DP  RH WIND       PRES   REMARKS
TUCSON         PTCLDY    66  48  52 E23G32    30.07R
DAVIS-MONTHAN  MOCLDY    64  48  56 SE14G22   30.07R
NOGALES        MOCLDY    57  48  72 NE10      30.08F
SIERRA VISTA   PTCLDY    53  48  82 E9        30.17F
DOUGLAS        PTCLDY    57  47  69 E13       30.15F
SAFFORD        MOCLDY    58  48  69 S7        30.18F
$$

AZZ020-021-025-026-031-271100-
SOUTHWEST ARIZONA

CITY           SKY/WX    TMP DP  RH WIND       PRES   REMARKS
YUMA           PTCLDY    80  48  32 E13       29.86
$$

CAZ031-033-041-043-047-048-061-271100-
SOUTHERN CALIFORNIA

CITY           SKY/WX    TMP DP  RH WIND       PRES   REMARKS
DOWNTOWN L.A.  CLEAR     75  47  36 E3        29.83F
L.A. AIRPORT   PTCLDY    73  51  46 E5        29.83F
SAN DIEGO      CLOUDY    86  47  25 NE6       29.84F
BURBANK        CLEAR     73  41  31 CALM      29.86F
ONTARIO        CLEAR     74  37  26 CALM      29.90F
RIVERSIDE      CLEAR     74  40  29 NE3       29.90F
PALM SPRINGS   CLEAR     78  52  40 CALM      29.92F
EL CENTRO NAS  MOCLDY    79  49  34 E5        29.88F
IMPERIAL       PTCLDY    81  50  33 SE7       29.86F
BLYTHE         PTCLDY    79  50  36 N7        29.90F
NEEDLES        PTCLDY    82  49  31 VRB3      29.95S
$$

NVZ020-UTZ003-271100-
SOUTHERN NEVADA-UTAH

CITY           SKY/WX    TMP DP  RH WIND       PRES   REMARKS
LAS VEGAS      CLEAR     71  30  21 S6        30.01F
SALT LAKE CITY CLEAR     53  48  83 SE8       30.23S
$$

NMZ009-TXZ055-271100-
NEW MEXICO-WEST TEXAS

CITY           SKY/WX    TMP DP  RH WIND       PRES   REMARKS
ALBUQUERQUE    MOCLDY    56  34  43 N8        30.32F
EL PASO        CLOUDY    57  44  62 E3        30.25F
$$


........................KEY........................
SKY/WX - SKY CONDITION/WEATHER
TMP    - TEMPERATURE IN FAHRENHEIT
DP     - DEW POINT IN FAHRENHEIT
RH     - RELATIVE HUMIDITY IN PERCENT
WIND   - DIRECTION AND SPEED IN MILES PER HOUR (MPH)
VRB    - VARIABLE WIND DIRECTION
PRES   - MEAN SEA LEVEL PRESSURE IN INCHES OF MERCURY
         F - FALLING PRESSURE   R - RISING PRESSURE
         S - STEADY PRESSURE
VSB    - VISIBILITY IN MILES
HX     - HEAT INDEX IN FAHRENHEIT
WCI    - WIND CHILL INDEX IN FAHRENHEIT
TC     - TEMPERATURE IN CELSIUS WHICH IS ALSO KNOWN AS
         TEMPERATURE IN CENTIGRADE
AFB    - AIR FORCE BASE
         LUKE AFB IS LUKE AIR FORCE BASE
         DAVIS-MONTHAN IS DAVIS-MONTHAN AIR FORCE BASE
NAS    - NAVAL AIR STATION
         EL CENTRO NAS IS EL CENTRO NAVAL AIR STATION
N/A    - NOT AVAILABLE





USA.gov is the U.S. government's official web portal to all federal, state and local government web resources and services.